sat.trackr.live / text

‹ back to catalog

STARLINK-35299

NORAD 66072 · 2025-235Q

PAYLOAD ACTIVE UNKNOWN

§ Identity

Operator
Country
US
Launch date
2025-10-19
Launch site
AFETR
Launch vehicle
Mass (kg)
RCS (m²)

Purposes: comms

External: N2YO · Heavens-Above · Gunter

§ Orbital elements

Epoch: 2026-05-25T00:06:04.544064Z

Period
94.10 min
Inclination
53.1577°
Eccentricity
0.0000477
Mean motion
15.30217359 rev/d
Perigee alt
474.8 km
Apogee alt
475.5 km
Semi-major
6,853.3 km
B*
5.3627e-4
RAAN
250.9341°
Arg perigee
230.4400°
Mean anomaly
129.6559°
Rev number
3,460

§ Raw data

STARLINK-352991 66072U 25235Q   26145.00421926  .00015566  00000+0  53627-3 0  99982 66072  53.1577 250.9341 0000477 230.4400 129.6559 15.30217359 34602

JSON: /api/v1/satellites/66072 · /tle

For live sub-satellite position, see the globe view (requires WebGL).

§ Visibility from observer

Set your observer location to see the next 7 days of passes ≥ 10°. The values pass through the URL so the page stays shareable.

No JS? Fill the form by hand. The geolocation button needs JavaScript.